Regional Weather Roundup
Issued by NWS Austin/San Antonio, TX

Home | Current Version | Previous Version | Text Only | Print | Product List | Glossary On
Versions: 1 2 3 4 5 6 7 8 9 10 11 12 13 14 15 16 17 18 19 20 21 22 23 24 25 26 27 28 29 30 31 32 33 34 35 36 37 38 39 40 41 42 43 44 45 46 47 48 49 50
000
ASUS44 KEWX 151601
RWREWX
SOUTH TEXAS REGIONAL WEATHER ROUNDUP
NATIONAL WEATHER SERVICE AUSTIN/SAN ANTONIO TX
1100 AM CDT SAT JUN 15 2019

NOTE: "FAIR" INDICATED FEW OR NO CLOUDS BELOW 12,000 FEET WITH NO
SIGNIFICANT WEATHER AND/OR OBSTRUCTIONS TO VISIBILITY.

* - THESE STATIONS ARE NOT NWS OR FAA STATIONS...AND ARE NOT SUBJECT
    TO NWS AND FAA QUALITY CONTROL.

TXZ171-172-183>190-151700-
TEXAS HILL COUNTRY AND EDWARDS PLATEAU

CITY           SKY/WX    TMP DP  RH WIND       PRES   REMARKS
JUNCTION       SUNNY     83  70  64 S14       29.91F
*LLANO         PTSUNNY   82  70  65 S13       29.94F
BURNET         CLOUDY    84  68  58 S15G30    29.94F
*HORSESHOE BAY CLOUDY    82  70  65 SW12G20   29.93S
*KERRVILLE     CLOUDY    79  71  77 S15       29.94S
*FREDERICKSBRG CLOUDY    78  68  71 S16       29.94F
*ROCKSPRINGS   CLOUDY    75  70  83 S12G20    29.99S
*BOERNE STAGE  CLOUDY    77  72  83 S10       29.96S
*CASTROVILLE   PTSUNNY   85  70  60 S15G21    29.93F
HONDO          MOSUNNY   84  72  67 SE14      29.91F
*UVALDE        MOSUNNY   82  73  74 S14       29.91S
DEL RIO        SUNNY     85  73  67 SE14      29.86S HX  91
LAUGHLIN AFB   NOT AVBL
CARRIZO SPRGS  SUNNY     88  70  55 S12G17    29.87S HX  92
$$

TXZ173-191>194-202-209-217>225-228-151700-
CENTRAL AND SOUTH CENTRAL TEXAS

CITY           SKY/WX    TMP DP  RH WIND       PRES   REMARKS
GEORGETOWN     MOSUNNY   85  72  65 S18       29.93F HX  91
AUSTIN/BERGSTM PTSUNNY   87  73  62 S17G24    29.92S HX  94
AUSTIN/MABRY   PTSUNNY   86  71  60 S10G21    29.93F HX  91
*AUSTIN/EXEC   CLOUDY    86  72  62 S18       29.93S HX  92
*LAGO VISTA    CLOUDY    82  71  68 S12G23    29.95S
SAN MARCOS     PTSUNNY   88  73  61 S17G28    29.92F HX  95
NEW BRAUNFELS  MOSUNNY   87  73  62 S16G23    29.91F HX  94
RANDOLPH AFB   NOT AVBL
PT SAN ANTONIO NOT AVBL
SAN ANTONIO    PTSUNNY   85  72  65 S13       29.93S HX  91
STINSON FIELD  PTSUNNY   85  70  60 S12       29.90F
*LA GRANGE     PTSUNNY   89  76  65 S10       29.92S HX 100
*GIDDINGS      MOSUNNY   89  74  60 S14G21    29.94F HX  97
*GONZALES      PTSUNNY   87  74  66 S15G23    29.92F HX  95
$$

TXZ163>164-176>182-195>201-210>213-226-227-235-151700-
SOUTHEAST TEXAS

CITY           SKY/WX    TMP DP  RH WIND       PRES   REMARKS
COLLEGE STN    MOSUNNY   87  73  62 S17G26    29.94F HX  94
*BRYAN         MOSUNNY   88  76  66 S14G22    29.95F HX  99
*CALDWELL      PTSUNNY   89  73  60 S17G25    29.94S HX  96
*CROCKETT        N/A     86  73  66 S12G18    29.98F HX  93
*BRENHAM       PTSUNNY   88  75  65 SW13G18   29.95S HX  97
HUNTSVILLE     PTSUNNY   90  74  59 S17G24    29.96F HX  99
CONROE         MOSUNNY   90  73  57 S10       29.97S HX  98
HOUSTON BUSH   PTSUNNY   90  76  63 S13G18    29.96F HX 101
HOUSTON HOBBY  PTSUNNY   89  75  63 S13       29.96S HX  99
*HOUSTON SW AP FAIR      88  76  68 SW9       29.97F HX  98
PEARLAND       FAIR      90  74  59 S15G23    29.98S HX  99
HOUSTON HOOKS  PTSUNNY   85  73  67 S12       29.96F HX  91
ELLINGTON FLD  MOSUNNY   88  72  58 S13       29.95F HX  94
SUGAR LAND     FAIR      87  76  69 S15G23    29.96S HX  97
*HOUSTON EXEC  FAIR      90  77  66 S13       29.97S HX 102
*CLEVELAND MUN PTSUNNY   89  76  64 S12G18    29.98S HX 100
*WHARTON       MOSUNNY   87  72  60 S18       29.96F HX  94
*COLUMBUS      FAIR      88  71  57 S15G24    29.95F HX  94
*EAGLE LAKE    PTSUNNY   88  78  71 S14       29.95S HX 101
$$

TXZ214>216-236>238-151700-
THE UPPER TEXAS COAST

CITY           SKY/WX    TMP DP  RH WIND       PRES   REMARKS
*ORANGE        FAIR      88  78  72 S15       30.02S HX 102
PORT ARTHUR    PTSUNNY   91  74  57 S12G21    29.99S HX 100
GALVESTON      FAIR      85  75  72 S21G28    29.99S HX  93
ANGLETON       FAIR      88  77  69 S17G26    29.97S HX 100
*BAY CITY      PTSUNNY   87  77  74 S16       29.97R HX  98
PALACIOS       PTSUNNY   88  76  67 S14       29.96S HX  99
$$

TXZ229>234-239>247-151700-
TEXAS COASTAL BEND AND RIO GRANDE PLAINS

CITY           SKY/WX    TMP DP  RH WIND       PRES   REMARKS
VICTORIA       MOSUNNY   87  76  69 S13       29.94F HX  97
*BEEVILLE      MOSUNNY   91  70  50 S17G29    29.92F HX  96
ROCKPORT       CLOUDY    83  77  82 SW13G21   29.94R HX  92
*PORT ARANSAS    N/A     85  76  74 S20       29.96R HX  95
*PORT LAVACA   NOT AVBL
*INGLESIDE     PTSUNNY   85  77  79 S13       29.94R HX  95
CORPUS CHRISTI PTSUNNY   88  76  67 S15       29.92F HX  99
CORPUS NAS     PTSUNNY   87  77  72 S21G26    29.93S HX  99
*ROBSTOWN      MOSUNNY   86  75  70 S16G22    29.93S HX  95
ALICE          MOSUNNY   89  74  60 S20       29.91F HX  98
KINGSVILLE NAS MOSUNNY   88  75  65 S16       29.91F HX  97
COTULLA        SUNNY     87  71  58 S14G20    29.88F HX  93
LAREDO         SUNNY     90  72  55 SE16G25   29.87F HX  97
$$

TXZ248>255-151700-
DEEP SOUTH TEXAS

CITY           SKY/WX    TMP DP  RH WIND       PRES   REMARKS
BROWNSVILLE    FAIR      92  77  61 SE18G26   29.94S HX 105
PORT ISABEL    FAIR      89  74  60 S15       29.93F HX  98
HARLINGEN      MOSUNNY   90  75  61 S20       29.92F HX 100
*HEBBRONVILLE  SUNNY     87  68  53 S10G20    29.92F HX  91
MCALLEN        PTSUNNY   91  73  55 SE22      29.92F HX  99
*WESLACO       MOSUNNY   91  72  54 S16       29.92F HX  97
FALFURRIAS     SUNNY     89  71  55 S17G23    29.92S HX  95
EDINBURG       FAIR      91  72  53 SE14G20   29.93S HX  97
*ZAPATA        FAIR      88  69  52 SE15G23   29.90F HX  92
$$

TXZ213>215-236>238-242>244-246-247-251-254-255-151700-
CMAN STATIONS

STATION/POSITION TIME  TEMP    WIND        PRES    WAVE
                       AIR SEA DIR/SP/G            HT/PER
                 (UTC) (F)     (DEG/KT/KT) (MB)    (FT/S)
SABINE PASS      1512   85 85  190/ 12/ 17 1017.5
NORTH JETTY/GLS  1512   85 84  200/ 18/ 19 1014.3
EAGLE POINT      1512   85 84  200/ 17/ 19 1014.3
MORGANS POINT    1512   86 85  190/  7/ 10 1015.0
PORT O`CONNOR    1512   84 84  190/ 17/ 20 1013.9
PORT ARANSAS     1500   84 84  160/ 19/ 21 1013.5
MALAQUITE BEACH  1518          160/ 20/ 23   N/A
BAFFIN BAY       1518          170/ 19/ 23   N/A
PORT ISABEL      1518          150/ 16/ 19   N/A
$$




USA.gov is the U.S. government's official web portal to all federal, state and local government web resources and services.